• In Hungary
  • List of Countries
  • For 7 days
  • Water Temperature
  • Satellite Maps
  • Weather Map
  • News
  • Weather Widgets
  • user-avatar
    Login

    Hourly Weather Eisenstadt

    Today, 24 April, Tuesday

    Time Temperature Precipitation Wind Pressure Humidity
    00:00 +15°C° 0.4 mm 2 mps 722 mmHg 85%
    01:00 +14°C° 0 mm 3 mps 722 mmHg 85%
    02:00 +14°C° 0.1 mm 3 mps 722 mmHg 85%
    03:00 +14°C° 0.1 mm 3 mps 722 mmHg 84%
    04:00 +14°C° 0.1 mm 3 mps 722 mmHg 84%
    05:00 +14°C° 0 mm 3 mps 723 mmHg 83%
    06:00 +14°C° 0 mm 3 mps 723 mmHg 82%
    07:00 +16°C° 0 mm 3 mps 723 mmHg 81%
    08:00 +17°C° 0.1 mm 3 mps 723 mmHg 75%
    09:00 +19°C° 0.1 mm 3 mps 724 mmHg 68%
    10:00 +20°C° 0.1 mm 3 mps 724 mmHg 61%
    11:00 +21°C° 0.5 mm 3 mps 724 mmHg 59%
    12:00 +21°C° 0.5 mm 3 mps 724 mmHg 57%
    13:00 +23°C° 0.5 mm 2 mps 723 mmHg 55%
    14:00 +23°C° 0.4 mm 2 mps 723 mmHg 56%
    15:00 +23°C° 0.4 mm 2 mps 723 mmHg 57%
    16:00 +23°C° 0.4 mm 2 mps 722 mmHg 58%
    17:00 +20°C° 0.2 mm 2 mps 722 mmHg 64%
    18:00 +19°C° 0.2 mm 1 mps 722 mmHg 70%
    19:00 +18°C° 0.2 mm 1 mps 722 mmHg 75%
    20:00 +16°C° 0 mm 1 mps 722 mmHg 77%
    21:00 +16°C° 0 mm 1 mps 722 mmHg 79%
    22:00 +15°C° 0 mm 1 mps 722 mmHg 81%
    23:00 +15°C° 0 mm 1 mps 722 mmHg 82%

    Tomorrow, 25 April, Wednesday

    Time Temperature Precipitation Wind Pressure Humidity
    00:00 +14°C° 0 mm 1 mps 722 mmHg 84%
    01:00 +14°C° 0 mm 1 mps 722 mmHg 85%
    02:00 +14°C° 0 mm 1 mps 722 mmHg 86%
    03:00 +13°C° 0 mm 1 mps 722 mmHg 87%
    04:00 +13°C° 0 mm 1 mps 721 mmHg 88%
    05:00 +14°C° 0 mm 1 mps 721 mmHg 85%
    06:00 +15°C° 0 mm 1 mps 722 mmHg 82%
    07:00 +16°C° 0 mm 1 mps 722 mmHg 79%
    08:00 +19°C° 0 mm 1 mps 722 mmHg 72%
    09:00 +20°C° 0 mm 2 mps 722 mmHg 65%
    10:00 +23°C° 0 mm 2 mps 722 mmHg 57%
    11:00 +24°C° 0 mm 2 mps 722 mmHg 55%
    12:00 +25°C° 0 mm 2 mps 721 mmHg 52%
    13:00 +26°C° 0 mm 2 mps 721 mmHg 49%
    14:00 +25°C° 0 mm 2 mps 721 mmHg 51%
    15:00 +25°C° 0 mm 2 mps 720 mmHg 52%
    16:00 +25°C° 0 mm 1 mps 720 mmHg 53%
    17:00 +23°C° 0.1 mm 1 mps 720 mmHg 59%
    18:00 +21°C° 0.1 mm 1 mps 719 mmHg 65%
    19:00 +19°C° 0.1 mm 1 mps 719 mmHg 71%
    20:00 +19°C° 0.3 mm 1 mps 720 mmHg 74%
    21:00 +17°C° 0.3 mm 2 mps 720 mmHg 77%
    22:00 +16°C° 0.3 mm 2 mps 720 mmHg 80%
    23:00 +16°C° 0.2 mm 2 mps 720 mmHg 80%

    Day after tomorrow, 26 April, Thursday

    Time Temperature Precipitation Wind Pressure Humidity
    00:00 +16°C° 0.2 mm 2 mps 720 mmHg 80%
    01:00 +15°C° 0.2 mm 2 mps 721 mmHg 80%
    02:00 +15°C° 0.1 mm 2 mps 721 mmHg 81%
    03:00 +15°C° 0.1 mm 2 mps 721 mmHg 81%
    04:00 +14°C° 0.1 mm 3 mps 721 mmHg 81%
    05:00 +14°C° 0.3 mm 3 mps 721 mmHg 82%
    06:00 +13°C° 0.3 mm 3 mps 721 mmHg 83%
    07:00 +13°C° 0.3 mm 3 mps 722 mmHg 84%
    08:00 +13°C° 0.7 mm 3 mps 722 mmHg 85%
    09:00 +12°C° 0.7 mm 3 mps 722 mmHg 86%
    10:00 +12°C° 0.7 mm 3 mps 722 mmHg 87%
    11:00 +11°C° 0.8 mm 3 mps 723 mmHg 87%
    12:00 +11°C° 0.8 mm 3 mps 723 mmHg 88%
    13:00 +10°C° 0.8 mm 4 mps 723 mmHg 88%
    14:00 +10°C° 0.4 mm 4 mps 723 mmHg 87%
    15:00 +8°C° 0.4 mm 4 mps 723 mmHg 86%
    16:00 +9°C° 0.4 mm 3 mps 723 mmHg 85%
    17:00 +9°C° 0.4 mm 3 mps 723 mmHg 85%
    18:00 +9°C° 0.4 mm 2 mps 724 mmHg 85%
    19:00 +9°C° 0.4 mm 2 mps 724 mmHg 86%
    20:00 +9°C° 0.2 mm 2 mps 724 mmHg 86%
    21:00 +9°C° 0.2 mm 2 mps 725 mmHg 86%
    22:00 +10°C° 0.2 mm 1 mps 725 mmHg 86%
    23:00 +9°C° 0.1 mm 1 mps 725 mmHg 86%

    27 April, Friday

    Time Temperature Precipitation Wind Pressure Humidity
    00:00 +9°C° 0.1 mm 1 mps 725 mmHg 86%
    01:00 +9°C° 0.1 mm 1 mps 725 mmHg 87%
    02:00 +9°C° 0 mm 1 mps 725 mmHg 86%
    03:00 +9°C° 0 mm 1 mps 724 mmHg 86%
    04:00 +9°C° 0 mm 1 mps 724 mmHg 86%
    05:00 +9°C° 0 mm 1 mps 724 mmHg 83%
    06:00 +10°C° 0 mm 1 mps 724 mmHg 80%
    07:00 +11°C° 0 mm 1 mps 724 mmHg 77%
    08:00 +13°C° 0 mm 1 mps 724 mmHg 69%
    09:00 +14°C° 0 mm 2 mps 724 mmHg 61%
    10:00 +16°C° 0 mm 3 mps 724 mmHg 53%
    11:00 +17°C° 0 mm 3 mps 723 mmHg 52%
    12:00 +18°C° 0 mm 4 mps 723 mmHg 51%
    13:00 +19°C° 0 mm 4 mps 722 mmHg 50%
    14:00 +19°C° 0 mm 4 mps 721 mmHg 51%
    15:00 +19°C° 0 mm 5 mps 721 mmHg 53%
    16:00 +19°C° 0 mm 5 mps 720 mmHg 55%
    17:00 +18°C° 0 mm 4 mps 720 mmHg 62%
    18:00 +16°C° 0 mm 3 mps 720 mmHg 69%
    19:00 +14°C° 0 mm 3 mps 720 mmHg 76%
    20:00 +13°C° 0 mm 3 mps 720 mmHg 78%
    21:00 +12°C° 0 mm 3 mps 720 mmHg 80%
    22:00 +12°C° 0 mm 3 mps 720 mmHg 82%
    23:00 +12°C° 0 mm 3 mps 720 mmHg 84%

    28 April, Saturday

    Time Temperature Precipitation Wind Pressure Humidity
    00:00 +12°C° 0 mm 2 mps 720 mmHg 86%
    01:00 +12°C° 0 mm 2 mps 719 mmHg 87%
    02:00 +12°C° 0 mm 2 mps 719 mmHg 88%
    03:00 +12°C° 0 mm 2 mps 719 mmHg 88%
    04:00 +12°C° 0 mm 2 mps 719 mmHg 88%
    05:00 +13°C° 0 mm 1 mps 719 mmHg 85%
    06:00 +14°C° 0 mm 1 mps 720 mmHg 81%
    07:00 +15°C° 0 mm 1 mps 720 mmHg 77%
    08:00 +18°C° 0 mm 1 mps 720 mmHg 71%
    09:00 +19°C° 0 mm 1 mps 720 mmHg 65%
    10:00 +21°C° 0 mm 1 mps 721 mmHg 60%
    11:00 +22°C° 0 mm 1 mps 720 mmHg 57%
    12:00 +23°C° 0 mm 1 mps 720 mmHg 55%
    13:00 +23°C° 0 mm 2 mps 720 mmHg 53%
    14:00 +23°C° 0.1 mm 2 mps 719 mmHg 55%
    15:00 +23°C° 0.1 mm 2 mps 719 mmHg 57%
    16:00 +23°C° 0.1 mm 2 mps 718 mmHg 60%
    17:00 +20°C° 0.3 mm 2 mps 718 mmHg 65%
    18:00 +19°C° 0.3 mm 2 mps 718 mmHg 71%
    19:00 +19°C° 0.3 mm 1 mps 718 mmHg 76%
    20:00 +18°C° 0 mm 1 mps 718 mmHg 78%
    21:00 +16°C° 0 mm 1 mps 718 mmHg 80%
    22:00 +15°C° 0 mm 2 mps 718 mmHg 81%
    23:00 +15°C° 0 mm 2 mps 718 mmHg 82%

    29 April, Sunday

    Time Temperature Precipitation Wind Pressure Humidity
    00:00 +15°C° 0 mm 2 mps 717 mmHg 83%
    01:00 +14°C° 0 mm 2 mps 717 mmHg 84%
    02:00 +14°C° 0 mm 2 mps 717 mmHg 85%
    03:00 +13°C° 0 mm 2 mps 717 mmHg 86%
    04:00 +13°C° 0 mm 2 mps 717 mmHg 86%
    05:00 +14°C° 0 mm 2 mps 717 mmHg 84%
    06:00 +15°C° 0 mm 2 mps 717 mmHg 81%
    07:00 +17°C° 0 mm 2 mps 716 mmHg 78%
    08:00 +18°C° 0.1 mm 3 mps 716 mmHg 71%
    09:00 +20°C° 0.1 mm 4 mps 716 mmHg 64%
    10:00 +22°C° 0.1 mm 5 mps 716 mmHg 56%
    11:00 +23°C° 0 mm 5 mps 716 mmHg 52%
    12:00 +23°C° 0 mm 6 mps 716 mmHg 48%
    13:00 +24°C° 0 mm 7 mps 715 mmHg 44%
    14:00 +24°C° 0 mm 7 mps 715 mmHg 45%
    15:00 +24°C° 0 mm 6 mps 715 mmHg 46%
    16:00 +24°C° 0 mm 6 mps 714 mmHg 47%
    17:00 +22°C° 0 mm 6 mps 714 mmHg 51%
    18:00 +21°C° 0 mm 6 mps 714 mmHg 55%
    19:00 +19°C° 0 mm 5 mps 714 mmHg 58%
    20:00 +17°C° 0 mm 5 mps 714 mmHg 60%
    21:00 +16°C° 0 mm 5 mps 715 mmHg 62%
    22:00 +15°C° 0 mm 5 mps 715 mmHg 64%
    23:00 +15°C° 0 mm 5 mps 715 mmHg 66%
    Show more